Change the Weather History Date:

Monday, May 12, 2014

  Actual Average Record
Temperature  
Mean Temperature 80 °F -  
Max Temperature 88 °F 83 °F 91 °F (1998)
Min Temperature 73 °F 65 °F 60 °F (2006)
Cooling Degree Days 15    
Growing Degree Days 30 (Base 50)    
Moisture  
Dew Point 68 °F    
Average Humidity 70    
Maximum Humidity 91    
Minimum Humidity 46    
Precipitation  
Precipitation 0.00 in - - ()
Sea Level Pressure  
Sea Level Pressure 30.15 in    
Wind  
Wind Speed 7 mph (ESE)    
Max Wind Speed 14 mph    
Max Gust Speed -    
Visibility 10 miles    
Events      
Averages and records for this station are not official NWS values.
T = Trace of Precipitation, MM = Missing Value Source: NWS Daily Summary

Daily Weather History Graph

Daily Weather History Graph

Search for Another Location

Airport or City:

Trip Planner

Search our weather history database for the weather conditions in past years. The results will help you decide how hot, cold, wet, or windy it might be!

Date:

Astronomy

May. 12, 2014 Rise Set
Actual Time 6:34 AM EDT 8:11 PM EDT
Civil Twilight 6:08 AM EDT 8:37 PM EDT
Nautical Twilight 5:37 AM EDT 9:09 PM EDT
Astronomical Twilight 5:04 AM EDT 9:42 PM EDT
Moon 6:16 PM EDT (5/12) 5:02 AM EDT (5/12)
Length of Visible Light 14h 29m
Length of Day
13h 36m
Waxing Gibbous, 95% of the Moon is Illuminated
May 12
Waxing Gibbous
May 14
Full
May 21
Last Quarter
May 28
New
Jun 5
First Quarter

Hourly Weather History & Observations

Time (EDT) Temp. Heat Index Dew Point Humidity Pressure Visibility Wind Dir Wind Speed Gust Speed Precip Events Conditions
12:53 AM 73.0 °F - 70.0 °F 90% 30.14 in 10.0 mi SSE 4.6 mph - N/A   Mostly Cloudy
1:53 AM 75.0 °F - 70.0 °F 84% 30.12 in 10.0 mi SSE 5.8 mph - N/A   Scattered Clouds
2:53 AM 75.0 °F - 70.0 °F 84% 30.12 in 10.0 mi SSE 5.8 mph - N/A   Partly Cloudy
3:53 AM 75.0 °F - 69.1 °F 82% 30.12 in 10.0 mi SE 5.8 mph - N/A   Partly Cloudy
4:53 AM 73.9 °F - 70.0 °F 87% 30.12 in 10.0 mi SE 4.6 mph - N/A   Partly Cloudy
5:53 AM 73.0 °F - 70.0 °F 90% 30.12 in 10.0 mi ESE 5.8 mph - N/A   Partly Cloudy
6:53 AM 73.0 °F - 70.0 °F 90% 30.15 in 8.0 mi Calm Calm - N/A   Partly Cloudy
7:53 AM 73.9 °F - 71.1 °F 91% 30.17 in 8.0 mi East 3.5 mph - N/A   Partly Cloudy
8:53 AM 78.1 °F - 70.0 °F 76% 30.17 in 10.0 mi SE 9.2 mph - N/A   Partly Cloudy
9:53 AM 80.1 °F 82.7 °F 68.0 °F 67% 30.18 in 10.0 mi SSE 9.2 mph - N/A   Partly Cloudy
10:53 AM 81.0 °F 83.8 °F 68.0 °F 65% 30.19 in 10.0 mi SSE 5.8 mph - N/A   Scattered Clouds
11:53 AM 82.9 °F 85.4 °F 66.9 °F 58% 30.19 in 10.0 mi Variable 3.5 mph - N/A   Scattered Clouds
12:53 PM 86.0 °F 88.2 °F 66.0 °F 51% 30.19 in 10.0 mi ESE 8.1 mph - N/A   Scattered Clouds
1:53 PM 86.0 °F 88.2 °F 66.0 °F 51% 30.17 in 10.0 mi East 12.7 mph - N/A   Scattered Clouds
2:53 PM 86.0 °F 88.2 °F 66.0 °F 51% 30.17 in 10.0 mi East 11.5 mph - N/A   Mostly Cloudy
3:53 PM 87.1 °F 89.2 °F 66.0 °F 49% 30.15 in 10.0 mi East 12.7 mph - N/A   Scattered Clouds
4:53 PM 86.0 °F 86.8 °F 63.0 °F 46% 30.14 in 10.0 mi East 12.7 mph - N/A   Mostly Cloudy
5:53 PM 84.9 °F 85.4 °F 62.1 °F 46% 30.13 in 10.0 mi East 12.7 mph - N/A   Scattered Clouds
6:53 PM 82.9 °F 84.0 °F 63.0 °F 51% 30.13 in 10.0 mi East 13.8 mph - N/A   Scattered Clouds
7:53 PM 80.1 °F 82.3 °F 66.9 °F 64% 30.13 in 10.0 mi ESE 13.8 mph - N/A   Mostly Cloudy
8:53 PM 78.1 °F - 68.0 °F 71% 30.13 in 10.0 mi ESE 10.4 mph - N/A   Scattered Clouds
9:53 PM 78.1 °F - 69.1 °F 74% 30.14 in 10.0 mi ESE 8.1 mph - N/A   Scattered Clouds
10:53 PM 77.0 °F - 70.0 °F 79% 30.14 in 10.0 mi East 8.1 mph - N/A   Partly Cloudy
11:53 PM 77.0 °F - 70.0 °F 79% 30.14 in 10.0 mi ESE 6.9 mph - N/A   Partly Cloudy